Dewpoint
56 56 55 55 54 53 52 52 51 51 51 51 52 53 52 49 48 47 49 54 54 54 52 52 55 58 60 60 61 62 63 63 63 64 65 64 64 65 65 65 64 64 63
55 55 54 53 53 52 52 51 50 50 50 51 51 50 50 48 46 45 46 48 53 54 54 53 53 56 58 59 59 59 60 62 62 63 64 64 64 64 64 64 64 64 63
54 54 53 53 53 54 52 52 51 52 52 52 51 51 50 49 47 45 43 47 49 54 55 56 55 55 56 56 56 57 58 60 61 61 62 64 63 63 63 63 63 64 64
52 52 53 52 53 53 52 52 52 51 51 51 50 50 50 48 47 45 43 44 46 48 52 55 57 57 55 54 55 54 56 57 59 61 61 62 63 63 63 62 63 63 64
52 51 50 51 51 52 52 52 52 51 51 51 50 49 49 49 48 46 45 44 45 46 44 52 55 55 55 55 53 52 51 55 57 59 59 60 61 61 61 61 62 63 63
50 50 49 49 50 49 49 49 48 48 49 50 48 49 50 50 50 49 47 44 45 44 44 44 51 50 54 55 53 51 51 53 55 56 56 57 57 57 57 57 58 59 61
49 48 48 47 47 47 46 46 47 47 46 48 46 46 47 48 48 49 49 48 46 47 44 44 46 47 48 54 53 50 50 51 52 55 53 52 51 51 51 51 52 54 57
48 46 46 45 45 46 46 46 45 44 45 45 45 44 41 42 44 45 47 47 48 49 48 47 46 45 43 46 48 52 50 50 52 54 52 51 51 51 50 50 49 49 50
44 43 43 44 43 45 45 44 44 45 44 44 45 44 41 40 41 43 43 46 47 49 49 51 51 45 42 41 46 48 49 50 52 50 49 48 48 48 47 46 46 48 49
43 42 41 42 43 44 43 45 45 44 43 41 43 40 41 42 38 36 41 40 41 43 43 46 49 51 51 47 43 45 46 48 50 50 47 47 45 45 44 44 45 46 47
42 41 40 42 44 45 44 43 43 43 43 41 40 39 38 36 37 35 33 35 37 39 41 43 45 48 49 50 49 47 47 45 46 48 46 44 42 42 43 43 43 43 43
41 41 43 44 43 43 43 42 42 42 40 40 39 38 38 36 35 35 35 34 34 37 37 40 42 46 46 48 49 48 47 45 44 45 45 41 39 39 41 40 41 42 42
40 43 42 42 42 41 41 41 41 40 40 39 38 37 38 36 38 37 36 36 33 34 36 39 41 44 44 46 46 46 47 45 42 44 44 42 40 41 39 39 39 40 41
41 41 41 41 40 40 40 39 39 40 38 39 37 40 39 39 40 38 36 35 31 32 32 33 39 41 41 42 43 44 45 44 44 43 42 42 42 41 40 38 39 39 38
39 41 40 39 39 39 39 38 38 37 37 37 37 37 37 37 39 39 39 38 34 29 28 30 30 34 37 40 41 41 42 44 43 42 41 41 42 41 40 38 37 38 37
38 38 39 38 37 37 39 38 37 36 36 37 37 36 36 36 37 38 36 37 37 34 30 30 30 31 32 29 38 40 40 38 40 42 41 41 41 41 41 41 41 39 37
37 37 39 39 39 40 39 37 37 36 36 35 34 32 31 31 31 32 32 31 33 34 31 30 34 33 31 30 29 33 36 36 35 41 40 39 40 40 40 40 40 41 40
39 39 40 39 38 38 37 36 33 31 29 27 26 26 27 24 26 27 28 27 27 27 26 24 25 25 25 26 27 27 27 25 29 35 39 39 39 39 39 39 39 39 39
39 38 38 38 36 35 31 28 28 28 27 26 26 25 25 24 24 25 25 26 27 24 24 23 22 25 25 25 25 25 25 27 25 33 34 37 39 39 39 39 38 38 38
38 37 32 32 30 28 27 26 25 26 25 25 26 25 24 24 24 25 26 25 23 23 22 22 23 23 24 26 27 26 26 27 27 26 31 32 34 35 38 39 39 38 38
31 31 29 28 28 26 24 25 24 24 24 24 25 23 23 25 28 29 26 27 24 22 22 22 22 22 22 22 22 25 24 25 26 28 28 29 29 29 30 34 37 38 38
30 27 27 27 27 23 29 28 26 24 24 23 22 23 24 25 25 27 29 28 28 26 26 25 24 23 22 22 24 24 24 23 23 27 27 26 29 29 30 31 33 36 37
25 26 25 27 26 26 29 28 28 25 23 22 22 23 20 18 24 25 26 28 28 29 28 26 24 24 24 24 24 23 23 23 23 26 25 26 24 27 29 30 34 35 36
23 24 26 26 25 24 29 29 30 25 24 23 23 22 21 23 24 24 23 25 26 27 28 27 27 27 27 27 27 27 28 30 30 29 29 24 26 27 28 29 34 35 36
23 25 27 26 26 26 29 30 29 25 25 25 25 24 22 22 24 26 27 25 25 26 27 28 29 29 30 32 34 32 28 27 24 24 25 26 25 27 25 26 29 33 34
27 28 27 28 29 26 28 29 27 21 21 24 23 22 23 22 25 28 26 26 23 23 23 24 26 26 26 26 28 28 26 25 25 25 26 26 25 25 20 25 29 30 30
Lifted_Index
-0 0 1 1 2 3 3 3 3 4 4 4 4 4 4 4 5 6 7 7 6 6 6 5 4 3 2 1 1 0 -1 -1 -2 -2 -2 -2 -2 -2 -2 -2 -3 -2 -2
0 1 1 2 2 3 3 3 4 4 4 4 4 4 4 4 5 5 6 7 7 6 6 6 5 3 2 2 2 1 1 -0 -1 -2 -2 -2 -2 -2 -2 -2 -3 -3 -2
1 1 2 2 3 3 4 4 4 4 4 4 4 4 4 4 4 5 5 6 7 7 7 6 5 4 4 3 3 3 2 1 0 -1 -1 -2 -2 -2 -2 -2 -2 -3 -3
1 2 3 3 4 4 4 4 5 4 4 4 4 4 4 4 4 4 5 5 6 7 7 7 6 5 5 5 4 4 4 2 1 0 -0 -1 -1 -1 -1 -1 -2 -2 -3
2 3 4 4 5 5 5 5 5 5 5 5 4 4 4 4 4 4 4 4 5 6 7 7 6 6 5 5 5 5 5 4 2 1 1 1 0 -0 -0 -1 -1 -1 -2
4 4 4 5 5 5 5 5 6 6 6 6 5 5 5 4 4 4 4 4 4 5 6 6 6 6 6 5 5 6 6 5 3 3 3 3 3 2 1 1 0 -0 -0
4 4 4 5 6 6 7 7 7 7 7 7 6 6 6 5 5 4 4 4 4 4 5 5 6 6 6 5 5 6 6 5 4 3 4 4 5 5 4 3 2 1 1
5 5 6 6 7 8 8 8 8 8 8 7 7 7 6 6 6 5 5 4 4 4 4 4 5 5 5 5 5 5 5 5 4 4 4 5 6 6 6 6 5 4 3
6 6 7 7 8 8 9 8 8 8 7 6 6 6 6 6 7 6 6 5 4 3 3 3 3 3 3 3 3 3 4 4 4 4 5 6 6 7 7 8 7 6 6
6 7 7 8 8 8 8 8 7 7 7 7 6 6 6 6 7 7 7 6 5 4 3 3 2 2 2 2 2 3 3 4 4 5 6 6 7 8 8 8 8 8 8
7 7 7 8 8 8 8 7 7 7 7 7 7 8 7 7 7 8 8 8 8 7 5 4 3 3 2 2 2 3 3 4 5 5 6 7 7 8 8 8 9 9 9
7 7 8 8 8 8 7 7 7 7 7 8 8 8 9 8 8 8 9 9 9 8 7 6 5 4 3 3 3 3 4 5 5 6 6 6 7 8 8 9 9 9 9
7 8 8 8 8 8 8 8 8 8 8 8 8 9 9 8 8 8 8 8 8 8 8 7 6 5 5 4 3 4 5 5 6 6 6 6 7 7 8 9 10 10 10
8 8 8 8 8 8 8 8 8 8 8 8 8 8 7 7 7 6 6 6 6 6 6 6 6 5 5 5 4 4 5 6 6 6 6 7 7 6 7 9 10 11 11
7 7 8 8 8 8 8 8 8 7 7 7 6 6 5 5 5 5 5 4 4 4 5 5 5 5 5 5 5 5 6 6 6 6 6 7 7 7 7 9 10 12 12
7 7 7 7 7 7 7 7 6 6 5 5 4 4 4 4 4 4 4 4 4 4 4 4 4 5 5 5 5 5 6 7 7 6 6 7 7 8 8 9 10 11 12
7 7 7 7 6 6 5 5 5 5 4 4 4 4 4 5 5 5 5 5 5 5 5 5 5 5 5 5 5 5 6 6 6 6 6 7 7 8 8 9 9 10 11
7 7 6 5 5 5 5 5 5 5 5 5 5 5 5 6 6 7 7 6 6 6 6 6 6 6 6 6 6 6 6 6 7 7 7 7 7 7 8 8 9 9 10
6 6 5 5 5 5 5 5 5 5 5 5 6 6 6 7 7 8 7 7 7 7 7 7 7 7 7 7 7 7 7 7 7 7 7 7 7 7 7 8 8 9 10
5 5 4 5 5 5 5 5 5 5 6 6 6 7 7 7 8 7 7 7 7 7 7 8 8 8 8 8 8 8 8 7 7 7 7 7 7 7 8 8 8 8 9
4 4 4 4 5 5 6 5 5 6 6 7 7 7 7 7 7 7 7 7 7 7 7 8 8 9 9 9 9 9 8 8 8 8 8 7 8 8 8 8 8 8 8
3 3 4 4 5 5 6 6 6 7 7 8 8 8 8 8 7 7 6 6 6 7 7 8 9 9 9 10 9 9 9 9 9 9 9 9 9 9 9 9 9 9 8
3 3 4 4 5 5 6 6 7 7 8 8 8 9 9 8 8 7 7 7 7 7 7 8 9 10 10 10 10 10 10 10 10 10 10 10 10 10 10 9 9 9 9
3 3 4 4 5 5 6 7 7 8 8 8 9 9 9 9 8 7 7 7 7 7 7 8 9 10 10 10 10 10 10 10 10 10 10 10 10 10 10 10 10 9 9
3 3 4 4 5 6 6 7 8 8 8 9 9 9 9 9 8 7 7 7 7 7 8 9 9 10 10 10 10 10 10 10 10 10 10 10 11 11 11 10 10 10 10
3 4 4 4 5 6 7 7 8 8 9 9 9 9 9 9 8 7 7 7 7 8 8 9 10 10 11 11 11 11 10 10 9 9 10 10 11 11 11 10 10 10 10